Regional Weather Roundup
Issued by NWS

Home | Current Version | Previous Version | Text Only | Print | Product List | Glossary On
Versions: 1 2 3 4 5 6 7 8 9 10 11 12 13 14 15 16 17 18 19 20 21 22 23 24 25 26 27 28 29 30 31 32 33 34 35 36 37 38 39 40 41 42 43 44 45 46 47 48 49 50
000
ASUS43 KLMK 231002
RWRKY
KENTUCKY REGIONAL WEATHER ROUNDUP
NATIONAL WEATHER SERVICE LOUISVILLE KY
600 AM EDT SUN JUL 23 2017

NOTE "FAIR" INDICATES FEW OR NO CLOUDS BELOW 12,000 FEET
WITH NO SIGNIFICANT WEATHER AND/OR OBSTRUCTIONS TO VISIBILITY.

KYZ001>023-026-027-061>063-070>075-231100-
WESTERN AND SOUTH CENTRAL KENTUCKY

CITY           SKY/WX    TMP DP  RH WIND       PRES   REMARKS
PADUCAH        CLEAR     79  74  84 SW7       29.82S
HENDERSON      CLOUDY    77  73  87 E9        29.80F
OWENSBORO      LGT RAIN  73  70  90 E15       29.85F
HOPKINSVILLE   CLEAR     77  74  89 SW5       29.86R
BOWLING GREEN  CLOUDY    79  76  90 NE8       29.91R
GLASGOW        NOT AVBL
$$

KYZ024-025-028>034-038-045-046-053-231100-
NORTH CENTRAL KENTUCKY

CITY           SKY/WX    TMP DP  RH WIND       PRES   REMARKS
LOUISVILLE/SDF LGT RAIN  73  70  90 CALM      29.89F
LOUISVILLE/LOU LGT RAIN  72  72 100 S14       29.90S
FORT KNOX      TSTM      70  69  96 W5        29.89S
$$

KYZ035>037-039>044-047>052-055>060-089>105-231100-
NORTHEAST KENTUCKY

CITY           SKY/WX    TMP DP  RH WIND       PRES   REMARKS
LEXINGTON      LGT RAIN  73  70  90 W8        29.91S
COVINGTON      CLOUDY    73  73 100 SW8       29.84F
FRANKFORT      RAIN      72  67  84 NW9       29.88F
$$

KYZ054-064>069-076>088-106>120-231100-
SOUTHEAST KENTUCKY

CITY           SKY/WX    TMP DP  RH WIND       PRES   REMARKS
JACKSON        CLOUDY    68  67  96 VRB6      29.95R THUNDER FOG
LONDON         CLOUDY    76  72  87 SW3       29.92S
SOMERSET       CLOUDY    77  73  88 CALM      29.93R
MIDDLESBORO    CLEAR     73  73 100 CALM      29.94R
MONTICELLO     CLOUDY    74  73  97 W13       29.94R
$$





USA.gov is the U.S. government's official web portal to all federal, state and local government web resources and services.